Location: Le Petit-Vavre
(46.5081°N, 1.5239°E)
Time: 21:49:28
(UTC+00:00)

Daily predictions for brighter satellites

Satellite Brightness Start Highest point End
(mag) Time Altitude Azimuth Time Altitude Azimuth Time Altitude Azimuth
CZ-2C R/B 3.6 18:03:50 10° NE 18:08:17 25° E 18:12:38 10° SSE
H-2A R/B 2.3 18:03:12 10° SSE 18:08:30 55° ENE 18:13:50 10° N
USA 305 4.1 18:05:41 10° W 18:09:40 36° NNW 18:13:38 10° NE
IRS-1C Rocket 4.1 18:07:04 10° SSE 18:12:18 71° ENE 18:17:34 10° N
Gbstr 26 Del rocket 3.6 18:08:11 10° W 18:12:22 56° NNW 18:17:30 10° ENE
Meteor 1-20 Rocket 4.2 18:09:14 10° S 18:14:36 65° E 18:20:04 10° NNE
Cosmos 1302 Rocket 4.0 18:09:40 10° SSW 18:14:51 89° ESE 18:20:06 10° NNE
SL-4 R/B 2.7 18:11:46 10° WNW 18:15:07 34° N 18:18:19 10° ENE
CSL-04 DEB 4.4 18:15:08 10° NNE 18:19:06 90° ESE 18:23:07 10° SSW
USA 307 4.1 18:17:03 10° W 18:21:00 34° NNW 18:24:56 10° NE
FALCON 9 DEB 3.7 18:19:51 10° NW 18:23:09 42° NNE 18:26:13 11° E
ATLAS CENTAUR R/B 2.2 18:20:29 10° S 18:23:25 24° ESE 18:26:24 10° ENE
USA 306 4.2 18:20:32 10° WNW 18:24:26 33° NNW 18:28:20 10° NE
Cosmos 1354 Rocket 4.5 18:20:59 10° N 18:25:56 40° ENE 18:30:51 10° SE
Cosmos 44 Rocket 3.4 18:21:56 10° NW 18:27:13 80° NE 18:32:25 10° SE
Okean-O 2.6 18:23:51 10° SSE 18:28:15 69° ENE 18:32:40 10° N
ERS-2 2.5 18:24:52 10° NNE 18:28:21 40° E 18:31:49 10° S
Cosmos 1844 Rocket 3.1 18:24:15 10° NNW 18:29:33 42° NE 18:34:49 10° SE
Cosmos 2084 Rocket 3.5 18:25:17 10° NW 18:29:36 64° NE 18:34:03 10° SE
CSL-04 Rocket 4.0 18:24:23 10° SE 18:29:42 48° ENE 18:34:59 10° N
SAR-Lupe-1 4.5 18:27:04 10° NNE 18:30:29 40° E 18:33:53 10° S
CSL-04 Debris 4.3 18:25:46 10° SE 18:31:02 53° ENE 18:36:20 10° N
USA 308 4.2 18:27:45 10° WNW 18:31:39 33° N 18:35:32 10° NE
Cosmos 1666 4.1 18:31:13 10° SE 18:33:42 17° E 18:36:12 10° NE
Cosmos 1271 Rocket 3.7 18:30:28 10° NNW 18:34:07 50° W 18:37:44 10° S
HJ-1C 3.4 18:32:55 10° SSE 18:36:10 53° ENE 18:39:25 10° N
Cosmos 1503 Rocket 4.1 18:31:08 10° NNW 18:36:15 55° ENE 18:41:18 10° SE
H-2A R/B 4.2 18:33:37 10° N 18:37:06 27° WNW 18:40:35 10° SW
Cosmos 2341 Rocket 4.5 18:31:56 10° SSE 18:37:37 37° E 18:43:17 10° NNE
PSLV R/B 3.8 18:35:24 10° NNE 18:39:30 72° ESE 18:43:33 10° S
Cosmos 1844 4.1 18:35:50 10° NNW 18:41:22 44° NE 18:46:48 10° SE
Cosmos 1470 Rocket 3.6 18:37:07 10° S 18:41:31 62° E 18:45:56 10° NNE
CZ-4B R/B 3.0 18:40:37 10° N 18:43:26 35° WNW 18:46:16 10° SW
Cosmos 2360 Rocket 2.4 18:38:31 10° S 18:43:53 47° ESE 18:49:18 10° NE
Cosmos 1602 3.9 18:41:17 10° SSW 18:45:10 77° W 18:49:07 10° N
Ariane Rocket 4.1 18:42:04 13° ESE 18:45:18 24° ENE 18:49:20 10° N
Cosmos 2278 Rocket 3.9 18:42:52 10° N 18:46:15 16° NE 18:48:36 13° ENE
Meteor 1-19 Rocket 4.4 18:43:15 10° NNW 18:49:15 88° W 18:55:01 10° S
Cosmos 1500 3.1 18:48:35 10° S 18:52:14 58° E 18:55:55 10° NNE
Meteor 2-4 Rocket 3.8 18:48:00 10° N 18:53:48 62° ENE 18:59:39 10° SSE
Cosmos 1703 Rocket 3.9 18:49:49 10° N 18:54:02 43° ENE 18:58:12 10° SSE
Cosmos 2333 Rocket 3.1 18:49:39 10° SSE 18:54:13 26° ESE 18:58:50 10° NE
DMSP B5D1-3 4.5 18:49:26 10° NNE 18:54:38 81° ESE 18:59:47 10° SSW
SL-08 RB Rocket 3.6 18:52:20 10° SSE 18:56:50 71° ENE 19:01:23 10° N
Cosmos 1689 Rocket 2.1 18:54:00 10° N 18:56:53 75° WNW 18:59:44 10° SSW
Meteor 2-12 Rocket 4.4 18:51:38 10° S 18:57:41 79° E 19:03:47 10° NNE
ERBS 4.1 18:56:39 10° W 18:59:32 27° NNW 19:02:18 11° NE
Cosmos 1980 Rocket 4.4 18:55:55 10° W 19:00:26 24° NW 19:04:59 10° N
Cosmos 1933 Rocket 3.4 18:58:07 10° S 19:02:25 68° E 19:06:48 10° NNE
BREEZE-M DEB (TANK) 4.5 19:02:31 10° S 19:03:36 16° SSE 19:03:36 16° SSE
Aureole 2 Rocket 2.3 19:02:16 10° NNW 19:04:46 52° WSW 19:06:52 13° S
Resurs 01 Rocket 3.3 19:12:40 17° NE 19:12:40 17° NE 19:14:51 10° NNE
Cosmos 2242 Rocket 3.5 19:07:37 10° N 19:12:09 76° E 19:16:36 10° SSE
Cosmos 2322 Rocket 2.7 19:08:18 10° SW 19:13:51 62° WNW 19:19:27 10° NNE
Lacrosse 4 Rocket 2.9 19:12:16 10° SSE 19:14:29 22° SE 19:14:29 22° SE
Abrixas rocket 1.9 19:13:40 10° W 19:16:06 50° N 19:16:08 50° N
SME Rocket 4.3 19:10:50 10° NNE 19:18:36 48° E 19:23:44 10° S
Helios 1A Rocket 3.7 19:15:18 10° S 19:19:16 53° W 19:23:14 10° NNW
YAOGAN 1 4.4 19:16:13 10° SSW 19:20:08 33° W 19:24:04 10° NNW
FALCON 9 DEB 4.5 19:17:28 10° NW 19:20:12 25° N 19:20:47 24° NNE
SJ-6B 2.9 19:22:30 33° SE 19:24:05 56° ENE 19:28:04 10° N
COSMOS 2428 3.3 19:19:11 10° SSE 19:24:10 32° ESE 19:24:51 31° E
ASTEX 1 3.6 19:22:58 10° NNE 19:27:41 45° E 19:30:11 25° SSE
GP-B 3.3 19:23:44 10° S 19:28:09 72° W 19:32:36 10° N
MOS 1 4.4 19:25:33 23° SE 19:29:00 56° ENE 19:34:33 10° N
Cosmos 2219 Rocket 2.4 19:25:49 10° S 19:31:03 43° ESE 19:36:20 10° NE
Meteor 1-11 Rocket 3.8 19:25:57 10° S 19:31:29 52° E 19:36:55 10° NNE
FALCON 9 DEB 4.4 19:29:56 10° NW 19:32:42 27° N 19:32:42 27° N
MetOp-A 4.0 19:27:43 10° SSE 19:33:05 86° ENE 19:38:28 10° NNW
OBJECT-B 1.7 19:36:26 37° NNE 19:36:26 37° NNE 19:38:34 10° N
Resurs 1-3 3.9 19:38:47 45° ENE 19:38:47 45° ENE 19:42:49 10° N
SL-16 R/B 3.8 19:33:35 10° WSW 19:38:45 35° NW 19:43:57 10° NNE
SJ 16-02 2.6 19:36:39 10° N 19:39:35 27° NE 19:39:35 27° NE
SeaSat 1 3.0 19:36:18 10° NNE 19:41:10 60° WNW 19:46:00 10° SW
Okean 1-7 3.4 19:36:57 10° NNW 19:41:17 64° W 19:45:34 10° S
Cosmos 1066 Rocket 4.2 19:37:51 10° N 19:43:32 62° ENE 19:45:41 38° SE
CZ-4 R/B 4.5 19:41:37 10° SW 19:43:46 14° W 19:45:56 10° WNW
Meteor 1-13 Rocket 4.2 19:37:58 10° N 19:43:58 84° E 19:48:31 18° SSE
USA 234 3.1 19:39:53 23° ENE 19:44:17 73° SE 19:50:49 10° SW
CZ-2C R/B 3.5 19:43:33 10° N 19:48:52 51° WNW 19:54:02 10° SW
IRS-1A Rocket 4.1 19:46:43 27° SSE 19:49:57 83° ENE 19:55:32 10° NNW
USA 305 4.1 19:46:37 10° WNW 19:50:26 31° N 19:50:56 30° NNE
BREEZE-M DEB (TANK) 2.7 19:48:02 10° WNW 19:50:43 60° NNE 19:51:09 56° NE
Cosmos 2322 3.6 19:45:17 10° SSW 19:50:59 78° ESE 19:56:44 10° NNE
DMSP B5D2-2 4.4 19:49:32 10° N 19:54:44 66° WNW 19:59:53 10° SSW
SL-4 R/B 2.4 19:51:32 10° WNW 19:54:12 47° NW 19:54:12 47° NW
USA 186 4.3 19:56:43 14° NW 19:56:43 14° NW 19:57:13 10° NW
Cosmos 1869 Rocket 3.6 19:52:22 10° SSW 19:56:44 78° W 20:01:09 10° N
SL-8 Rocket 4.1 19:52:58 10° SSW 19:59:11 74° W 20:05:24 10° N
Gbstr 26 Del rocket 4.0 19:55:19 10° WNW 19:59:58 49° N 20:00:59 43° NE
USA 307 4.2 19:57:58 10° NW 20:01:49 31° N 20:01:49 31° N
ATLAS CENTAUR R/B 2.6 19:58:49 10° WSW 20:02:08 33° NW 20:03:10 28° N
USA 306 4.2 20:01:21 10° NW 20:05:03 32° N 20:05:03 32° N
Cosmos 1666 4.3 20:05:35 10° SW 20:08:59 34° WNW 20:12:27 10° N
USA 308 4.2 20:08:35 10° NW 20:12:00 32° N 20:12:00 32° N
Cosmos 1844 Rocket 4.2 20:08:23 10° NW 20:13:19 33° WSW 20:17:55 11° SSW
Cosmos 2366 rocket 4.2 20:07:57 10° SSW 20:14:14 70° W 20:20:36 10° N
SL-08 R/B 4.4 20:11:58 31° S 20:15:14 76° E 20:21:43 10° NNE
SPOT 3 Rocket 3.7 20:18:37 63° NNE 20:18:37 63° NNE 20:23:08 10° N
Okean 3 4.2 20:15:21 10° NNW 20:19:28 49° W 20:19:31 49° W
Ariane Rocket 3.7 20:22:15 36° SSW 20:23:56 52° W 20:28:56 10° NNW
Cosmos 2360 Rocket 3.8 20:23:03 10° WSW 20:28:05 32° NW 20:33:10 10° NNE
Cosmos 2278 Rocket 2.5 20:25:46 10° NNW 20:30:28 57° N 20:30:28 57° N
Cosmos 1727 Rocket 4.3 20:29:54 10° NNW 20:36:01 64° W 20:37:44 46° SSW
Cosmos 2333 Rocket 2.8 20:32:32 10° SW 20:38:07 55° WNW 20:43:45 10° NNE
Cosmos 1821 Rocket 4.4 20:41:55 52° NNE 20:41:55 52° NNE 20:46:28 10° N
Resurs 01 Rocket 3.5 20:50:14 27° NNW 20:50:14 27° NNW 20:52:23 10° NNW
Cosmos 1943 Rocket 4.1 20:46:03 10° N 20:48:24 19° NNE 20:48:24 19° NNE
Lacrosse 4 Rocket 4.1 20:50:17 10° WSW 20:50:57 14° WSW 20:50:57 14° WSW
COSMOS 2428 3.8 21:02:52 10° SW 21:14:01 - NNE 21:07:14 40° W
Cosmos 2219 Rocket 3.6 21:10:04 10° WSW 21:15:07 34° NW 21:20:13 10° NNE
SJ 16-02 4.0 21:15:14 10° NW 21:16:35 18° NW 21:16:35 18° NW
USA 234 3.9 21:27:15 49° NNW 21:27:15 49° NNW 21:33:22 10° W
Cosmos 2369 Rocket 4.5 21:31:09 10° N 21:32:29 16° N 21:32:29 16° N
